Volver al catálogo

INTELSAT 502

ActivoComunicacionesGEO
NORAD 12089·PAYLOAD· XX

Lanzado Dec 6, 1980 desde Cape Canaveral Space Force Station

Loading…

TLE

ActualizadoSource: Space-Track

Época: Sep 14, 2026, 19:12 UTC

1 12089U 80098A   26257.80032104  .00000043  00000-0  00000-0 0  9992
2 12089  11.1718 326.4329 0011039 310.0634  62.7579  0.98888721134613

Sigue INTELSAT 502 en tiempo real con AllMySat

Download on the App Store